Time,TemperatureF,DewpointF,PressureIn,WindDirection,WindDirectionDegrees,WindSpeedMPH,WindSpeedGustMPH,Humidity,HourlyPrecipIn,Conditions,Clouds,dailyrainin,SoftwareType,DateUTC
2013-11-03 00:00:00,34.8,27.1,30.05,North,350,0.0,9.1,73,0.00,,SCT,1.50,VWS V14.00,2013-11-03 04:00:00,
2013-11-03 00:04:00,33.6,24.8,30.06,North,353,6.6,11.1,70,0.00,,OVC,0.00,VWS V14.00,2013-11-03 04:04:00,
2013-11-03 00:10:00,33.4,24.3,30.07,NE,35,3.9,11.1,69,0.00,,OVC,0.00,VWS V14.00,2013-11-03 04:10:00,
2013-11-03 00:15:00,33.6,24.8,30.07,NNW,345,2.9,11.1,70,0.00,,OVC,0.00,VWS V14.00,2013-11-03 04:15:00,
2013-11-03 00:20:00,33.4,25.0,30.07,North,349,1.5,11.1,71,0.00,,OVC,0.00,VWS V14.00,2013-11-03 04:20:00,
2013-11-03 00:25:00,33.3,24.3,30.07,NNE,13,7.8,11.1,69,0.00,,OVC,0.00,VWS V14.00,2013-11-03 04:25:00,
2013-11-03 00:30:00,33.0,23.3,30.07,NNE,25,4.8,11.9,67,0.00,,OVC,0.00,VWS V14.00,2013-11-03 04:30:00,
2013-11-03 00:35:00,32.9,24.2,30.08,North,6,2.5,11.9,70,0.00,,OVC,0.00,VWS V14.00,2013-11-03 04:35:00,
2013-11-03 00:40:00,32.9,23.3,30.08,NNE,14,4.2,11.9,67,0.00,,OVC,0.00,VWS V14.00,2013-11-03 04:40:00,
2013-11-03 00:45:00,32.9,23.6,30.08,North,359,3.1,11.9,68,0.00,,OVC,0.00,VWS V14.00,2013-11-03 04:45:00,
2013-11-03 00:50:00,32.7,23.7,30.08,NNE,18,7.2,11.9,69,0.00,,OVC,0.00,VWS V14.00,2013-11-03 04:50:00,
2013-11-03 00:55:00,32.6,23.0,30.08,NE,37,3.8,11.9,67,0.00,,OVC,0.00,VWS V14.00,2013-11-03 04:55:00,
2013-11-03 01:00:00,32.5,23.1,30.09,NNE,21,4.8,10.5,68,0.00,,OVC,0.00,VWS V14.00,2013-11-03 05:00:00,
2013-11-03 01:05:00,32.4,22.5,30.09,North,359,4.1,13.7,66,0.00,,OVC,0.00,VWS V14.00,2013-11-03 05:05:00,
2013-11-03 01:10:00,32.4,22.5,30.09,WNW,288,1.2,13.7,67,0.00,,OVC,0.00,VWS V14.00,2013-11-03 05:10:00,
2013-11-03 01:15:00,32.4,23.0,30.09,NNE,14,5.5,13.7,68,0.00,,OVC,0.00,VWS V14.00,2013-11-03 05:15:00,
2013-11-03 01:20:00,32.3,22.5,30.09,North,6,1.4,13.7,67,0.00,,OVC,0.00,VWS V14.00,2013-11-03 05:20:00,
2013-11-03 01:25:00,32.2,22.5,30.10,North,10,7.5,13.7,67,0.00,,OVC,0.00,VWS V14.00,2013-11-03 05:25:00,
2013-11-03 01:30:00,32.2,22.5,30.10,North,359,2.4,7.8,67,0.00,,OVC,0.00,VWS V14.00,2013-11-03 05:30:00,
2013-11-03 01:35:00,32.1,22.6,30.10,North,4,1.8,8.6,68,0.00,,OVC,0.00,VWS V14.00,2013-11-03 05:35:00,
2013-11-03 01:40:00,32.1,22.8,30.10,NNE,17,4.8,8.6,68,0.00,,OVC,0.00,VWS V14.00,2013-11-03 05:40:00,
2013-11-03 01:45:00,31.9,21.7,30.11,NNW,336,4.9,11.2,66,0.00,,OVC,0.00,VWS V14.00,2013-11-03 05:45:00,
2013-11-03 01:50:00,31.9,21.9,30.11,NNE,28,8.5,14.5,66,0.00,,OVC,0.00,VWS V14.00,2013-11-03 05:50:00,
2013-11-03 01:55:00,31.8,21.6,30.11,North,6,6.0,16.0,66,0.00,,OVC,0.00,VWS V14.00,2013-11-03 05:55:00,
2013-11-03 01:00:00,31.8,21.9,30.11,North,7,4.7,8.8,66,0.00,,OVC,0.00,VWS V14.00,2013-11-03 06:00:00,
2013-11-03 01:05:00,31.7,21.5,30.11,NNE,22,5.5,12.2,66,0.00,,OVC,0.00,VWS V14.00,2013-11-03 06:05:00,
2013-11-03 01:10:00,31.8,22.8,30.11,North,353,5.8,12.2,69,0.00,,OVC,0.00,VWS V14.00,2013-11-03 06:10:00,
2013-11-03 01:15:00,31.6,22.0,30.12,North,8,5.8,12.2,67,0.00,,OVC,0.00,VWS V14.00,2013-11-03 06:15:00,
2013-11-03 01:20:00,31.7,21.4,30.12,North,8,6.3,12.2,65,0.00,,OVC,0.00,VWS V14.00,2013-11-03 06:20:00,
2013-11-03 01:25:00,31.6,21.3,30.12,North,0,8.1,12.2,65,0.00,,OVC,0.00,VWS V14.00,2013-11-03 06:25:00,
2013-11-03 01:30:00,31.5,20.7,30.12,North,359,4.6,12.7,64,0.00,,OVC,0.00,VWS V14.00,2013-11-03 06:30:00,
2013-11-03 01:35:00,31.5,21.5,30.13,NNE,18,5.0,12.7,66,0.00,,OVC,0.00,VWS V14.00,2013-11-03 06:35:00,
2013-11-03 01:40:00,31.5,20.8,30.13,NNE,18,4.6,12.7,64,0.00,,OVC,0.00,VWS V14.00,2013-11-03 06:40:00,
2013-11-03 01:45:00,31.5,21.4,30.13,NNE,18,13.5,13.5,66,0.00,,OVC,0.00,VWS V14.00,2013-11-03 06:45:00,
2013-11-03 01:50:00,31.4,21.1,30.13,NNE,28,6.1,13.5,65,0.00,,OVC,0.00,VWS V14.00,2013-11-03 06:50:00,
2013-11-03 01:55:00,31.3,21.6,30.14,North,11,6.8,13.5,67,0.00,,OVC,0.00,VWS V14.00,2013-11-03 06:55:00,
2013-11-03 02:00:00,31.4,21.6,30.14,North,350,1.1,9.4,67,0.00,,OVC,0.00,VWS V14.00,2013-11-03 07:00:00,
2013-11-03 02:05:00,31.3,21.4,30.14,NE,38,8.8,9.6,66,0.00,,OVC,0.00,VWS V14.00,2013-11-03 07:05:00,
2013-11-03 02:10:00,31.5,21.8,30.14,North,8,3.1,9.6,67,0.00,,OVC,0.00,VWS V14.00,2013-11-03 07:10:00,
2013-11-03 02:15:00,31.3,21.9,30.14,NNE,20,4.8,9.6,68,0.00,,OVC,0.00,VWS V14.00,2013-11-03 07:15:00,
2013-11-03 02:20:00,31.3,21.4,30.15,North,4,5.3,11.4,66,0.00,,OVC,0.00,VWS V14.00,2013-11-03 07:20:00,
2013-11-03 02:25:00,31.3,21.4,30.15,NE,35,7.9,11.4,66,0.00,,OVC,0.00,VWS V14.00,2013-11-03 07:25:00,
2013-11-03 02:30:00,31.3,21.4,30.15,North,7,3.7,11.7,66,0.00,,OVC,0.00,VWS V14.00,2013-11-03 07:30:00,
2013-11-03 02:35:00,31.3,21.9,30.15,NNE,17,1.7,11.7,68,0.00,,OVC,0.00,VWS V14.00,2013-11-03 07:35:00,
2013-11-03 02:40:00,31.2,21.5,30.15,NE,35,4.4,11.7,67,0.00,,OVC,0.00,VWS V14.00,2013-11-03 07:40:00,
2013-11-03 02:45:00,31.3,21.7,30.15,NE,37,4.5,11.7,67,0.00,,OVC,0.00,VWS V14.00,2013-11-03 07:45:00,
2013-11-03 02:50:00,31.2,21.6,30.15,NNE,32,6.6,11.7,67,0.00,,OVC,0.00,VWS V14.00,2013-11-03 07:50:00,
2013-11-03 02:55:00,31.3,21.5,30.16,North,359,4.4,11.7,67,0.00,,OVC,0.00,VWS V14.00,2013-11-03 07:55:00,
2013-11-03 03:00:00,31.4,22.4,30.16,NNE,17,1.9,8.9,69,0.00,,OVC,0.00,VWS V14.00,2013-11-03 08:00:00,
2013-11-03 03:05:00,31.3,22.0,30.16,NNW,340,2.0,8.9,68,0.00,,OVC,0.00,VWS V14.00,2013-11-03 08:05:00,
2013-11-03 03:10:00,31.2,21.7,30.16,NW,316,1.6,9.4,68,0.00,,OVC,0.00,VWS V14.00,2013-11-03 08:10:00,
2013-11-03 03:15:00,31.1,21.5,30.17,NNW,339,5.0,9.4,67,0.00,,OVC,0.00,VWS V14.00,2013-11-03 08:15:00,
2013-11-03 03:20:00,31.1,21.4,30.17,NNE,25,7.5,9.4,67,0.00,,OVC,0.00,VWS V14.00,2013-11-03 08:20:00,
2013-11-03 03:25:00,31.2,21.8,30.17,North,3,3.9,10.1,68,0.00,,OVC,0.00,VWS V14.00,2013-11-03 08:25:00,
2013-11-03 03:30:00,31.1,21.9,30.18,NE,46,5.8,8.4,68,0.00,,OVC,0.00,VWS V14.00,2013-11-03 08:30:00,
2013-11-03 03:35:00,31.0,21.2,30.18,ENE,58,7.1,10.1,67,0.00,,OVC,0.00,VWS V14.00,2013-11-03 08:35:00,
2013-11-03 03:40:00,31.0,21.8,30.18,NE,39,1.4,10.1,68,0.00,,OVC,0.00,VWS V14.00,2013-11-03 08:40:00,
2013-11-03 03:45:00,30.8,21.0,30.18,ENE,75,7.5,10.2,67,0.00,,OVC,0.00,VWS V14.00,2013-11-03 08:45:00,
2013-11-03 03:50:00,30.8,21.6,30.18,North,356,3.0,11.0,68,0.00,,OVC,0.00,VWS V14.00,2013-11-03 08:50:00,
2013-11-03 03:55:00,30.8,21.5,30.19,NNE,25,6.5,11.0,68,0.00,,OVC,0.00,VWS V14.00,2013-11-03 08:55:00,
2013-11-03 04:00:00,30.9,21.9,30.19,NNE,13,3.2,8.5,69,0.00,,OVC,0.00,VWS V14.00,2013-11-03 09:00:00,
2013-11-03 04:05:00,30.8,21.5,30.20,North,11,4.1,8.5,68,0.00,,OVC,0.00,VWS V14.00,2013-11-03 09:05:00,
2013-11-03 04:10:00,30.8,21.9,30.20,NNE,20,5.7,8.5,69,0.00,,OVC,0.00,VWS V14.00,2013-11-03 09:10:00,
2013-11-03 04:15:00,30.7,21.7,30.20,NNE,20,3.3,8.5,69,0.00,,OVC,0.00,VWS V14.00,2013-11-03 09:15:00,
2013-11-03 04:20:00,30.6,21.6,30.20,NE,39,5.5,8.5,69,0.00,,OVC,0.00,VWS V14.00,2013-11-03 09:20:00,
2013-11-03 04:25:00,30.7,21.6,30.20,North,0,2.2,10.3,69,0.00,,OVC,0.00,VWS V14.00,2013-11-03 09:25:00,
2013-11-03 04:30:00,30.6,21.6,30.20,NNE,30,6.2,8.0,69,0.00,,OVC,0.00,VWS V14.00,2013-11-03 09:30:00,
2013-11-03 04:35:00,30.5,21.3,30.21,NNE,17,6.0,10.5,68,0.00,,OVC,0.00,VWS V14.00,2013-11-03 09:35:00,
2013-11-03 04:40:00,30.4,21.7,30.21,NE,35,6.6,10.5,70,0.00,,OVC,0.00,VWS V14.00,2013-11-03 09:40:00,
2013-11-03 04:45:00,30.3,21.1,30.21,North,8,4.5,10.5,68,0.00,,OVC,0.00,VWS V14.00,2013-11-03 09:45:00,
2013-11-03 04:50:00,30.3,21.4,30.21,NNE,27,6.0,10.5,69,0.00,,OVC,0.00,VWS V14.00,2013-11-03 09:50:00,
2013-11-03 04:55:00,30.3,21.6,30.22,NNE,21,4.2,10.5,70,0.00,,OVC,0.00,VWS V14.00,2013-11-03 09:55:00,
2013-11-03 05:00:00,30.2,21.2,30.22,North,4,3.4,10.3,69,0.00,,OVC,0.00,VWS V14.00,2013-11-03 10:00:00,
2013-11-03 05:05:00,30.3,21.3,30.23,NE,56,6.3,10.3,69,0.00,,OVC,0.00,VWS V14.00,2013-11-03 10:05:00,
2013-11-03 05:10:00,30.2,21.8,30.23,North,3,7.2,11.1,71,0.00,,OVC,0.00,VWS V14.00,2013-11-03 10:10:00,
2013-11-03 05:15:00,30.1,21.3,30.23,North,7,4.0,11.1,69,0.00,,OVC,0.00,VWS V14.00,2013-11-03 10:15:00,
2013-11-03 05:20:00,30.1,21.1,30.24,NE,38,5.2,11.1,69,0.00,,OVC,0.00,VWS V14.00,2013-11-03 10:20:00,
2013-11-03 05:26:00,30.1,21.6,30.24,NE,38,5.0,11.1,70,0.00,,OVC,0.00,VWS V14.00,2013-11-03 10:26:00,
2013-11-03 05:30:00,30.7,21.8,30.20,North,3,4.2,10.3,69,0.00,,SCT,0.00,VWS V14.00,2013-11-03 10:30:00,
2013-11-03 05:31:00,30.0,21.6,30.24,NNE,17,3.7,8.4,70,0.00,,OVC,0.00,VWS V14.00,2013-11-03 10:31:00,
2013-11-03 05:36:00,29.8,21.1,30.24,North,357,2.6,10.4,70,0.00,,OVC,0.00,VWS V14.00,2013-11-03 10:36:00,
2013-11-03 05:41:00,29.8,21.1,30.25,NE,34,6.7,13.0,70,0.00,,OVC,0.00,VWS V14.00,2013-11-03 10:41:00,
2013-11-03 05:46:00,29.9,21.4,30.25,NNE,25,3.5,13.0,70,0.00,,OVC,0.00,VWS V14.00,2013-11-03 10:46:00,
2013-11-03 05:51:00,29.5,21.1,30.25,NNE,17,6.5,13.0,70,0.00,,OVC,0.00,VWS V14.00,2013-11-03 10:51:00,
2013-11-03 05:56:00,29.6,21.5,30.26,North,4,3.9,13.0,71,0.00,,OVC,0.00,VWS V14.00,2013-11-03 10:56:00,
2013-11-03 06:00:00,30.3,21.3,30.22,NW,321,3.4,10.5,69,0.00,,SCT,0.00,VWS V14.00,2013-11-03 11:00:00,
2013-11-03 06:01:00,29.5,21.5,30.26,North,3,2.9,7.6,72,0.00,,OVC,0.00,VWS V14.00,2013-11-03 11:01:00,
2013-11-03 06:06:00,29.4,21.4,30.26,ENE,66,4.2,7.6,72,0.00,,OVC,0.00,VWS V14.00,2013-11-03 11:06:00,
2013-11-03 06:11:00,29.1,21.5,30.26,NNE,21,2.8,7.9,73,0.00,,OVC,0.00,VWS V14.00,2013-11-03 11:11:00,
2013-11-03 06:16:00,29.1,21.8,30.26,NNE,21,2.6,7.9,74,0.00,,OVC,0.00,VWS V14.00,2013-11-03 11:16:00,
2013-11-03 06:21:00,29.0,21.9,30.27,North,356,0.9,7.9,74,0.00,,OVC,0.00,VWS V14.00,2013-11-03 11:21:00,
2013-11-03 06:26:00,28.8,22.0,30.27,NNE,13,1.4,7.9,75,0.00,,OVC,0.00,VWS V14.00,2013-11-03 11:26:00,
2013-11-03 06:30:00,29.9,21.2,30.24,North,10,4.7,11.1,70,0.00,,SCT,0.00,VWS V14.00,2013-11-03 11:30:00,
2013-11-03 06:31:00,28.7,22.0,30.28,North,11,1.7,3.8,76,0.00,,OVC,0.00,VWS V14.00,2013-11-03 11:31:00,
2013-11-03 06:36:00,28.6,22.0,30.28,North,6,3.5,3.8,76,0.00,,SCT,0.00,VWS V14.00,2013-11-03 11:36:00,
2013-11-03 06:41:00,28.5,21.9,30.29,NW,319,2.4,6.5,76,0.00,,SCT,0.00,VWS V14.00,2013-11-03 11:41:00,
2013-11-03 06:46:00,28.4,21.9,30.29,North,359,1.4,6.5,76,0.00,,SCT,0.00,VWS V14.00,2013-11-03 11:46:00,
2013-11-03 06:51:00,28.3,22.0,30.29,NNE,14,0.0,6.5,77,0.00,,SCT,0.00,VWS V14.00,2013-11-03 11:51:00,
2013-11-03 06:56:00,28.2,22.0,30.29,NNW,347,0.0,6.5,77,0.00,,SCT,0.00,VWS V14.00,2013-11-03 11:56:00,
2013-11-03 07:00:00,29.5,21.4,30.25,NNE,17,2.9,13.0,71,0.00,,SCT,0.00,VWS V14.00,2013-11-03 12:00:00,
2013-11-03 07:01:00,28.1,22.1,30.30,NNE,20,2.0,6.5,78,0.00,,SCT,0.00,VWS V14.00,2013-11-03 12:01:00,
2013-11-03 07:06:00,28.0,22.1,30.30,NNE,15,1.4,6.5,78,0.00,,SCT,0.00,VWS V14.00,2013-11-03 12:06:00,
2013-11-03 07:11:00,27.9,22.1,30.30,North,6,5.0,6.5,78,0.00,,SCT,0.00,VWS V14.00,2013-11-03 12:11:00,
2013-11-03 07:16:00,28.0,22.3,30.31,NW,322,3.2,6.5,79,0.00,,SCT,0.00,VWS V14.00,2013-11-03 12:16:00,
2013-11-03 07:21:00,27.9,22.2,30.31,NW,319,0.0,6.5,79,0.00,,SCT,0.00,VWS V14.00,2013-11-03 12:21:00,
2013-11-03 07:26:00,27.9,22.1,30.32,North,353,2.0,6.5,78,0.00,,SCT,0.00,VWS V14.00,2013-11-03 12:26:00,
2013-11-03 07:30:00,28.8,22.0,30.28,NNE,24,1.4,7.9,76,0.00,,SCT,0.00,VWS V14.00,2013-11-03 12:30:00,
2013-11-03 07:31:00,28.2,22.3,30.32,NNW,328,3.3,6.5,78,0.00,,SCT,0.00,VWS V14.00,2013-11-03 12:31:00,
2013-11-03 07:36:00,28.3,22.3,30.32,North,10,0.0,6.5,78,0.00,,SCT,0.00,VWS V14.00,2013-11-03 12:36:00,
2013-11-03 07:41:00,28.3,22.0,30.33,NNW,343,1.2,7.6,77,0.00,,SCT,0.00,VWS V14.00,2013-11-03 12:41:00,
2013-11-03 07:46:00,28.6,22.2,30.33,NNE,17,4.6,7.6,77,0.00,,SCT,0.00,VWS V14.00,2013-11-03 12:46:00,
2013-11-03 07:51:00,28.8,22.0,30.34,NW,307,6.3,7.6,75,0.00,,SCT,0.00,VWS V14.00,2013-11-03 12:51:00,
2013-11-03 07:56:00,29.1,22.2,30.34,North,7,3.6,7.6,75,0.00,,SCT,0.00,VWS V14.00,2013-11-03 12:56:00,
2013-11-03 08:00:00,29.1,22.3,30.34,WNW,298,0.7,8.5,75,0.00,,SCT,0.00,VWS V14.00,2013-11-03 13:00:00,
2013-11-03 08:01:00,29.1,22.1,30.34,NNE,32,6.1,6.8,75,0.00,,SCT,0.00,VWS V14.00,2013-11-03 13:01:00,
2013-11-03 08:06:00,29.4,22.3,30.34,NE,42,2.7,7.0,74,0.00,,SCT,0.00,VWS V14.00,2013-11-03 13:06:00,
2013-11-03 08:11:00,29.6,22.4,30.35,NNE,21,5.0,7.1,74,0.00,,SCT,0.00,VWS V14.00,2013-11-03 13:11:00,
2013-11-03 08:16:00,29.8,22.3,30.35,NW,322,3.6,10.5,73,0.00,,SCT,0.00,VWS V14.00,2013-11-03 13:16:00,
2013-11-03 08:21:00,29.9,22.4,30.35,NNE,22,5.5,10.5,73,0.00,,SCT,0.00,VWS V14.00,2013-11-03 13:21:00,
2013-11-03 08:26:00,30.1,22.1,30.35,NE,44,2.4,11.2,72,0.00,,SCT,0.00,VWS V14.00,2013-11-03 13:26:00,
2013-11-03 08:30:00,30.1,22.3,30.35,NNE,32,7.6,11.2,72,0.00,,SCT,0.00,VWS V14.00,2013-11-03 13:30:00,
2013-11-03 08:31:00,30.1,21.9,30.35,NNE,17,9.7,13.8,71,0.00,,SCT,0.00,VWS V14.00,2013-11-03 13:31:00,
2013-11-03 08:36:00,30.3,22.5,30.35,NNE,18,4.2,13.8,72,0.00,,SCT,0.00,VWS V14.00,2013-11-03 13:36:00,
2013-11-03 08:41:00,30.5,22.3,30.35,NNW,347,3.4,13.8,71,0.00,,SCT,0.00,VWS V14.00,2013-11-03 13:41:00,
2013-11-03 08:46:00,30.8,22.4,30.35,North,357,4.5,13.8,71,0.00,,SCT,0.00,VWS V14.00,2013-11-03 13:46:00,
2013-11-03 08:51:00,31.1,22.9,30.35,North,359,2.6,13.8,71,0.00,,SCT,0.00,VWS V14.00,2013-11-03 13:51:00,
2013-11-03 08:56:00,31.5,22.8,30.35,NNE,18,7.7,13.8,70,0.00,,SCT,0.00,VWS V14.00,2013-11-03 13:56:00,
2013-11-03 09:00:00,31.5,22.9,30.35,NNE,17,5.2,13.8,70,0.00,,SCT,0.00,VWS V14.00,2013-11-03 14:00:00,
2013-11-03 09:01:00,31.5,22.5,30.35,NNE,30,7.9,9.3,69,0.00,,SCT,0.00,VWS V14.00,2013-11-03 14:01:00,
2013-11-03 09:06:00,31.7,22.6,30.35,NNE,13,6.5,9.6,69,0.00,,SCT,0.00,VWS V14.00,2013-11-03 14:06:00,
2013-11-03 09:11:00,31.7,22.9,30.35,ENE,62,7.1,10.9,69,0.00,,SCT,0.00,VWS V14.00,2013-11-03 14:11:00,
2013-11-03 09:16:00,31.8,22.8,30.36,NE,52,4.8,10.9,69,0.00,,SCT,0.00,VWS V14.00,2013-11-03 14:16:00,
2013-11-03 09:21:00,31.9,22.1,30.36,NNE,31,9.3,12.8,67,0.00,,SCT,0.00,VWS V14.00,2013-11-03 14:21:00,
2013-11-03 09:26:00,32.4,22.7,30.36,NNE,20,8.5,12.8,67,0.00,,SCT,0.00,VWS V14.00,2013-11-03 14:26:00,
2013-11-03 09:30:00,32.5,22.6,30.36,NNE,15,6.2,12.8,67,0.00,,SCT,0.00,VWS V14.00,2013-11-03 14:30:00,
2013-11-03 09:31:00,32.6,22.4,30.36,NNE,25,2.8,8.9,66,0.00,,SCT,0.00,VWS V14.00,2013-11-03 14:31:00,
2013-11-03 09:36:00,33.0,22.1,30.36,North,354,6.5,12.1,64,0.00,,SCT,0.00,VWS V14.00,2013-11-03 14:36:00,
2013-11-03 09:41:00,33.2,22.0,30.36,NE,49,6.0,12.1,63,0.00,,SCT,0.00,VWS V14.00,2013-11-03 14:41:00,
2013-11-03 09:46:00,32.9,21.9,30.37,NE,34,7.3,12.1,64,0.00,,SCT,0.00,VWS V14.00,2013-11-03 14:46:00,
2013-11-03 09:51:00,33.0,22.1,30.37,NNE,31,4.5,12.1,64,0.00,,SCT,0.00,VWS V14.00,2013-11-03 14:51:00,
2013-11-03 09:56:00,33.1,21.8,30.37,NNW,340,3.0,12.1,63,0.00,,SCT,0.00,VWS V14.00,2013-11-03 14:56:00,
2013-11-03 10:00:00,33.1,22.4,30.37,NW,305,3.2,12.1,64,0.00,,SCT,0.00,VWS V14.00,2013-11-03 15:00:00,
2013-11-03 10:06:00,33.1,21.7,30.37,NNE,15,3.0,11.8,63,0.00,,SCT,0.00,VWS V14.00,2013-11-03 15:06:00,
2013-11-03 10:11:00,33.3,22.0,30.37,NNE,22,7.8,11.8,63,0.00,,SCT,0.00,VWS V14.00,2013-11-03 15:11:00,
2013-11-03 10:16:00,33.6,23.1,30.37,NW,325,0.5,11.8,65,0.00,,SCT,0.00,VWS V14.00,2013-11-03 15:16:00,
2013-11-03 10:21:00,34.0,22.5,30.37,NNE,32,1.7,11.8,62,0.00,,FEW,0.00,VWS V14.00,2013-11-03 15:21:00,
2013-11-03 10:26:00,33.7,19.8,30.37,NNE,14,5.5,11.8,56,0.00,,FEW,0.00,VWS V14.00,2013-11-03 15:26:00,
2013-11-03 10:30:00,33.5,21.0,30.38,NE,45,6.5,12.6,60,0.00,,SCT,0.00,VWS V14.00,2013-11-03 15:30:00,
2013-11-03 10:31:00,33.6,21.4,30.38,NNE,15,3.7,9.3,60,0.00,,FEW,0.00,VWS V14.00,2013-11-03 15:31:00,
2013-11-03 10:36:00,33.9,20.0,30.38,ENE,63,5.4,9.3,56,0.00,,FEW,0.00,VWS V14.00,2013-11-03 15:36:00,
2013-11-03 10:41:00,34.6,21.4,30.37,NE,55,7.8,9.8,58,0.00,,FEW,0.00,VWS V14.00,2013-11-03 15:41:00,
2013-11-03 10:46:00,34.6,21.2,30.38,NE,53,9.8,12.1,58,0.00,,FEW,0.00,VWS V14.00,2013-11-03 15:46:00,
2013-11-03 10:51:00,34.8,21.5,30.38,ENE,77,4.8,12.1,58,0.00,,FEW,0.00,VWS V14.00,2013-11-03 15:51:00,
2013-11-03 10:56:00,34.9,21.6,30.38,North,3,5.9,12.1,58,0.00,,FEW,0.00,VWS V14.00,2013-11-03 15:56:00,
2013-11-03 11:00:00,35.0,21.1,30.38,East,100,4.0,13.3,56,0.00,,SCT,0.00,VWS V14.00,2013-11-03 16:00:00,
2013-11-03 11:01:00,35.3,21.5,30.38,NNE,32,7.2,9.8,57,0.00,,FEW,0.00,VWS V14.00,2013-11-03 16:01:00,
2013-11-03 11:06:00,35.2,20.3,30.38,NNE,18,4.3,9.8,54,0.00,,FEW,0.00,VWS V14.00,2013-11-03 16:06:00,
2013-11-03 11:11:00,35.2,20.8,30.38,NE,35,3.0,9.8,55,0.00,,FEW,0.00,VWS V14.00,2013-11-03 16:11:00,
2013-11-03 11:16:00,35.1,21.5,30.38,North,4,6.2,10.2,57,0.00,,FEW,0.00,VWS V14.00,2013-11-03 16:16:00,
2013-11-03 11:21:00,34.8,20.0,30.38,NNW,346,1.1,10.2,54,0.00,,FEW,0.00,VWS V14.00,2013-11-03 16:21:00,
2013-11-03 11:26:00,34.4,21.4,30.38,NNE,24,8.8,10.2,58,0.00,,FEW,0.00,VWS V14.00,2013-11-03 16:26:00,
2013-11-03 11:30:00,34.7,21.6,30.38,ENE,63,7.1,10.2,58,0.00,,SCT,0.00,VWS V14.00,2013-11-03 16:30:00,
2013-11-03 11:31:00,34.9,21.0,30.39,NNW,339,2.1,7.8,56,0.00,,FEW,0.00,VWS V14.00,2013-11-03 16:31:00,
2013-11-03 11:36:00,35.0,20.2,30.38,NE,53,0.0,7.8,54,0.00,,FEW,0.00,VWS V14.00,2013-11-03 16:36:00,
2013-11-03 11:41:00,34.9,20.3,30.39,NE,53,6.4,9.1,55,0.00,,FEW,0.00,VWS V14.00,2013-11-03 16:41:00,
2013-11-03 11:46:00,34.5,20.3,30.38,NNE,31,4.6,9.1,56,0.00,,FEW,0.00,VWS V14.00,2013-11-03 16:46:00,
2013-11-03 11:51:00,34.3,20.3,30.38,North,1,1.3,9.1,56,0.00,,FEW,0.00,VWS V14.00,2013-11-03 16:51:00,
2013-11-03 11:57:00,34.6,20.5,30.38,NW,314,4.2,9.1,56,0.00,,FEW,0.00,VWS V14.00,2013-11-03 16:57:00,
2013-11-03 12:00:00,35.0,19.6,30.38,North,8,4.2,9.1,53,0.00,,SCT,0.00,VWS V14.00,2013-11-03 17:00:00,
2013-11-03 12:02:00,35.3,18.5,30.38,NNE,17,4.8,5.4,50,0.00,,FEW,0.00,VWS V14.00,2013-11-03 17:02:00,
2013-11-03 12:07:00,35.0,17.7,30.38,NE,46,4.3,9.1,49,0.00,,FEW,0.00,VWS V14.00,2013-11-03 17:07:00,
2013-11-03 12:12:00,35.2,17.6,30.38,ENE,63,1.6,9.1,48,0.00,,FEW,0.00,VWS V14.00,2013-11-03 17:12:00,
2013-11-03 12:17:00,35.7,18.7,30.38,WNW,291,3.7,9.1,50,0.00,,FEW,0.00,VWS V14.00,2013-11-03 17:17:00,
2013-11-03 12:22:00,35.7,19.0,30.38,North,3,9.4,13.4,50,0.00,,FEW,0.00,VWS V14.00,2013-11-03 17:22:00,
2013-11-03 12:27:00,35.6,19.3,30.38,North,354,5.7,13.4,51,0.00,,FEW,0.00,VWS V14.00,2013-11-03 17:27:00,
2013-11-03 12:30:00,35.3,18.2,30.39,NNW,328,6.2,13.4,49,0.00,,SCT,0.00,VWS V14.00,2013-11-03 17:30:00,
2013-11-03 12:32:00,35.2,18.4,30.39,NNE,13,3.6,6.2,50,0.00,,FEW,0.00,VWS V14.00,2013-11-03 17:32:00,
2013-11-03 12:37:00,35.2,18.8,30.39,North,7,5.7,8.3,51,0.00,,FEW,0.00,VWS V14.00,2013-11-03 17:37:00,
2013-11-03 12:42:00,35.7,18.4,30.39,NNE,32,9.3,11.4,49,0.00,,FEW,0.00,VWS V14.00,2013-11-03 17:42:00,
2013-11-03 12:47:00,35.9,19.8,30.39,WNW,283,0.7,11.4,52,0.00,,FEW,0.00,VWS V14.00,2013-11-03 17:47:00,
2013-11-03 12:52:00,36.4,20.3,30.39,NNW,343,2.4,11.4,52,0.00,,FEW,0.00,VWS V14.00,2013-11-03 17:52:00,
2013-11-03 12:57:00,36.3,19.8,30.39,ENE,59,8.1,12.4,51,0.00,,FEW,0.00,VWS V14.00,2013-11-03 17:57:00,
2013-11-03 13:00:00,36.1,18.9,30.39,North,8,5.9,12.4,49,0.00,,SCT,0.00,VWS V14.00,2013-11-03 18:00:00,
2013-11-03 13:02:00,35.7,19.9,30.39,NNE,15,6.2,9.1,52,0.00,,FEW,0.00,VWS V14.00,2013-11-03 18:02:00,
2013-11-03 13:07:00,36.1,20.2,30.39,NW,322,3.9,12.3,52,0.00,,FEW,0.00,VWS V14.00,2013-11-03 18:07:00,
2013-11-03 13:12:00,36.3,19.2,30.39,NNE,20,5.2,12.3,50,0.00,,FEW,0.00,VWS V14.00,2013-11-03 18:12:00,
2013-11-03 13:17:00,37.0,21.6,30.39,NW,307,6.5,12.3,53,0.00,,FEW,0.00,VWS V14.00,2013-11-03 18:17:00,
2013-11-03 13:22:00,36.9,19.6,30.39,West,270,1.0,12.3,49,0.00,,FEW,0.00,VWS V14.00,2013-11-03 18:22:00,
2013-11-03 13:27:00,36.4,18.4,30.39,NW,304,1.6,12.3,48,0.00,,FEW,0.00,VWS V14.00,2013-11-03 18:27:00,
2013-11-03 13:30:00,35.9,18.8,30.39,WNW,298,8.2,12.3,49,0.00,,SCT,0.00,VWS V14.00,2013-11-03 18:30:00,
2013-11-03 13:32:00,35.8,18.3,30.39,NW,309,2.7,8.2,49,0.00,,FEW,0.00,VWS V14.00,2013-11-03 18:32:00,
2013-11-03 13:37:00,36.4,19.3,30.40,NW,318,8.6,9.8,49,0.00,,FEW,0.00,VWS V14.00,2013-11-03 18:37:00,
2013-11-03 13:42:00,36.8,18.9,30.40,NNE,13,4.2,9.8,48,0.00,,FEW,0.00,VWS V14.00,2013-11-03 18:42:00,
2013-11-03 13:47:00,36.7,17.9,30.40,ENE,59,2.4,9.8,46,0.00,,FEW,0.00,VWS V14.00,2013-11-03 18:47:00,
2013-11-03 13:52:00,37.0,21.2,30.40,WNW,292,3.7,9.8,52,0.00,,FEW,0.00,VWS V14.00,2013-11-03 18:52:00,
2013-11-03 13:57:00,36.9,17.1,30.41,NNW,343,5.9,9.8,44,0.00,,FEW,0.00,VWS V14.00,2013-11-03 18:57:00,
2013-11-03 14:00:00,36.9,18.2,30.41,North,352,5.3,9.8,46,0.00,,SCT,0.00,VWS V14.00,2013-11-03 19:00:00,
2013-11-03 14:02:00,37.0,18.0,30.41,NE,42,4.9,7.7,46,0.00,,FEW,0.00,VWS V14.00,2013-11-03 19:02:00,
2013-11-03 14:07:00,36.9,18.0,30.41,NNW,330,3.9,7.7,46,0.00,,FEW,0.00,VWS V14.00,2013-11-03 19:07:00,
2013-11-03 14:12:00,36.5,18.1,30.41,NW,321,2.9,9.4,47,0.00,,FEW,0.00,VWS V14.00,2013-11-03 19:12:00,
2013-11-03 14:17:00,36.9,18.7,30.42,NNW,330,4.7,9.6,47,0.00,,FEW,0.00,VWS V14.00,2013-11-03 19:17:00,
2013-11-03 14:22:00,37.1,19.0,30.41,NW,325,3.9,9.6,47,0.00,,FEW,0.00,VWS V14.00,2013-11-03 19:22:00,
2013-11-03 14:27:00,37.1,18.1,30.42,NNW,332,3.4,9.6,46,0.00,,FEW,0.00,VWS V14.00,2013-11-03 19:27:00,
2013-11-03 14:30:00,37.4,19.8,30.42,North,1,0.0,9.6,49,0.00,,SCT,0.00,VWS V14.00,2013-11-03 19:30:00,
2013-11-03 14:32:00,37.3,19.4,30.42,NW,323,2.7,9.5,48,0.00,,FEW,0.00,VWS V14.00,2013-11-03 19:32:00,
2013-11-03 14:37:00,37.0,19.5,30.43,NE,44,4.8,9.5,49,0.00,,FEW,0.00,VWS V14.00,2013-11-03 19:37:00,
2013-11-03 14:42:00,36.9,16.5,30.42,NNW,338,3.0,9.5,43,0.00,,FEW,0.00,VWS V14.00,2013-11-03 19:42:00,
2013-11-03 14:47:00,36.8,17.8,30.43,West,260,0.9,9.5,46,0.00,,FEW,0.00,VWS V14.00,2013-11-03 19:47:00,
2013-11-03 14:52:00,36.5,17.6,30.42,WNW,301,5.4,9.5,46,0.00,,FEW,0.00,VWS V14.00,2013-11-03 19:52:00,
2013-11-03 14:57:00,36.7,16.6,30.43,NNW,342,3.7,9.5,44,0.00,,FEW,0.00,VWS V14.00,2013-11-03 19:57:00,
2013-11-03 15:00:00,36.8,17.4,30.43,WNW,301,6.2,9.5,45,0.00,,SCT,0.00,VWS V14.00,2013-11-03 20:00:00,
2013-11-03 15:02:00,36.9,18.1,30.43,NW,314,0.6,8.0,46,0.00,,FEW,0.00,VWS V14.00,2013-11-03 20:02:00,
2013-11-03 15:07:00,36.9,17.5,30.43,NNW,339,5.5,8.9,45,0.00,,FEW,0.00,VWS V14.00,2013-11-03 20:07:00,
2013-11-03 15:12:00,37.0,17.1,30.43,North,6,2.4,8.9,44,0.00,,FEW,0.00,VWS V14.00,2013-11-03 20:12:00,
2013-11-03 15:17:00,37.1,17.2,30.43,NNE,21,3.1,8.9,44,0.00,,FEW,0.00,VWS V14.00,2013-11-03 20:17:00,
2013-11-03 15:22:00,36.9,18.0,30.43,West,273,7.1,9.3,46,0.00,,FEW,0.00,VWS V14.00,2013-11-03 20:22:00,
2013-11-03 15:27:00,36.9,18.2,30.44,NNW,329,4.7,9.3,46,0.00,,FEW,0.00,VWS V14.00,2013-11-03 20:27:00,
2013-11-03 15:30:00,36.8,19.8,30.43,NW,307,6.1,9.3,50,0.00,,SCT,0.00,VWS V14.00,2013-11-03 20:30:00,
2013-11-03 15:32:00,36.8,18.5,30.43,NNW,338,0.9,7.5,47,0.00,,FEW,0.00,VWS V14.00,2013-11-03 20:32:00,
2013-11-03 15:37:00,37.0,19.0,30.43,NW,308,0.0,7.5,48,0.00,,FEW,0.00,VWS V14.00,2013-11-03 20:37:00,
2013-11-03 15:42:00,36.8,17.8,30.43,WNW,295,5.8,8.6,46,0.00,,FEW,0.00,VWS V14.00,2013-11-03 20:42:00,
2013-11-03 15:47:00,36.9,18.1,30.44,WNW,283,2.1,8.6,46,0.00,,FEW,0.00,VWS V14.00,2013-11-03 20:47:00,
2013-11-03 15:52:00,36.8,19.2,30.44,NNE,27,5.3,8.6,48,0.00,,FEW,0.00,VWS V14.00,2013-11-03 20:52:00,
2013-11-03 15:57:00,36.2,17.6,30.44,NE,46,3.9,8.6,46,0.00,,FEW,0.00,VWS V14.00,2013-11-03 20:57:00,
2013-11-03 16:00:00,36.4,18.3,30.43,NNE,21,1.6,8.6,47,0.00,,SCT,0.00,VWS V14.00,2013-11-03 21:00:00,
2013-11-03 16:02:00,36.4,18.5,30.44,NW,312,1.1,3.7,48,0.00,,FEW,0.00,VWS V14.00,2013-11-03 21:02:00,
2013-11-03 16:07:00,36.2,17.6,30.44,NW,304,5.1,5.7,46,0.00,,FEW,0.00,VWS V14.00,2013-11-03 21:07:00,
2013-11-03 16:12:00,36.0,17.5,30.44,NNW,335,4.4,6.3,47,0.00,,FEW,0.00,VWS V14.00,2013-11-03 21:12:00,
2013-11-03 16:17:00,36.1,17.9,30.44,NNW,332,0.0,6.3,47,0.00,,FEW,0.00,VWS V14.00,2013-11-03 21:17:00,
2013-11-03 16:22:00,36.0,17.8,30.44,NNW,328,1.7,6.3,47,0.00,,FEW,0.00,VWS V14.00,2013-11-03 21:22:00,
2013-11-03 16:27:00,35.6,18.2,30.44,North,1,0.0,6.3,49,0.00,,FEW,0.00,VWS V14.00,2013-11-03 21:27:00,
2013-11-03 16:30:00,35.5,18.6,30.45,North,1,0.0,6.3,50,0.00,,SCT,0.00,VWS V14.00,2013-11-03 21:30:00,
2013-11-03 16:32:00,35.4,18.2,30.45,North,1,0.0,0.0,49,0.00,,FEW,0.00,VWS V14.00,2013-11-03 21:32:00,
2013-11-03 16:37:00,35.2,18.4,30.45,North,1,0.0,0.0,50,0.00,,FEW,0.00,VWS V14.00,2013-11-03 21:37:00,
2013-11-03 16:42:00,35.0,18.7,30.45,North,1,0.0,0.0,51,0.00,,FEW,0.00,VWS V14.00,2013-11-03 21:42:00,
2013-11-03 16:47:00,34.9,19.0,30.45,North,1,0.0,0.0,52,0.00,,FEW,0.00,VWS V14.00,2013-11-03 21:47:00,
2013-11-03 16:52:00,34.4,19.6,30.45,North,1,0.0,0.0,54,0.00,,FEW,0.00,VWS V14.00,2013-11-03 21:52:00,
2013-11-03 16:57:00,34.1,19.5,30.46,North,1,0.0,0.0,55,0.00,,FEW,0.00,VWS V14.00,2013-11-03 21:57:00,
2013-11-03 17:00:00,34.0,19.3,30.46,North,1,0.0,0.0,54,0.00,,SCT,0.00,VWS V14.00,2013-11-03 22:00:00,
2013-11-03 17:02:00,33.9,19.7,30.46,North,1,0.0,0.0,56,0.00,,SKC,0.00,VWS V14.00,2013-11-03 22:02:00,
2013-11-03 17:07:00,33.3,20.1,30.46,North,1,0.0,0.0,58,0.00,,SKC,0.00,VWS V14.00,2013-11-03 22:07:00,
2013-11-03 17:12:00,32.9,19.3,30.46,North,1,0.0,0.0,57,0.00,,SKC,0.00,VWS V14.00,2013-11-03 22:12:00,
2013-11-03 17:17:00,32.6,21.0,30.46,North,1,0.0,0.0,62,0.00,,SKC,0.00,VWS V14.00,2013-11-03 22:17:00,
2013-11-03 17:22:00,31.9,21.3,30.47,North,1,0.0,0.0,65,0.00,,SKC,0.00,VWS V14.00,2013-11-03 22:22:00,
2013-11-03 17:27:00,31.3,21.5,30.47,North,1,0.0,0.0,67,0.00,,SKC,0.00,VWS V14.00,2013-11-03 22:27:00,
2013-11-03 17:30:00,31.2,21.5,30.47,North,1,0.0,0.0,67,0.00,,SCT,0.00,VWS V14.00,2013-11-03 22:30:00,
2013-11-03 17:32:00,30.8,21.3,30.47,North,1,0.0,0.0,67,0.00,,SKC,0.00,VWS V14.00,2013-11-03 22:32:00,
2013-11-03 17:37:00,30.3,20.7,30.47,North,1,0.0,0.0,67,0.00,,SKC,0.00,VWS V14.00,2013-11-03 22:37:00,
2013-11-03 17:42:00,30.1,20.9,30.47,North,1,0.0,0.0,68,0.00,,SKC,0.00,VWS V14.00,2013-11-03 22:42:00,
2013-11-03 17:47:00,29.7,21.0,30.48,West,267,0.0,2.5,70,0.00,,SKC,0.00,VWS V14.00,2013-11-03 22:47:00,
2013-11-03 17:52:00,29.2,21.3,30.48,West,267,0.0,2.5,72,0.00,,SKC,0.00,VWS V14.00,2013-11-03 22:52:00,
2013-11-03 17:57:00,29.1,21.5,30.49,West,267,0.0,2.5,73,0.00,,SKC,0.00,VWS V14.00,2013-11-03 22:57:00,
2013-11-03 18:00:00,29.0,21.4,30.49,West,267,0.0,2.5,73,0.00,,SCT,0.00,VWS V14.00,2013-11-03 23:00:00,
2013-11-03 18:02:00,28.9,21.5,30.49,West,267,0.0,0.0,74,0.00,,SKC,0.00,VWS V14.00,2013-11-03 23:02:00,
2013-11-03 18:07:00,28.8,21.4,30.49,West,267,0.0,0.0,74,0.00,,SKC,0.00,VWS V14.00,2013-11-03 23:07:00,
2013-11-03 18:12:00,28.7,21.5,30.49,West,267,0.0,0.0,74,0.00,,SKC,0.00,VWS V14.00,2013-11-03 23:12:00,
2013-11-03 18:17:00,28.4,21.3,30.49,West,267,0.0,0.0,74,0.00,,SKC,0.00,VWS V14.00,2013-11-03 23:17:00,
2013-11-03 18:22:00,28.2,21.1,30.49,West,267,0.0,0.0,74,0.00,,SKC,0.00,VWS V14.00,2013-11-03 23:22:00,
2013-11-03 18:27:00,28.1,21.1,30.49,West,267,0.0,0.0,75,0.00,,SKC,0.00,VWS V14.00,2013-11-03 23:27:00,
2013-11-03 18:30:00,28.0,21.0,30.49,West,267,0.0,0.0,75,0.00,,SCT,0.00,VWS V14.00,2013-11-03 23:30:00,
2013-11-03 18:32:00,27.9,21.1,30.49,West,267,0.0,0.0,75,0.00,,SKC,0.00,VWS V14.00,2013-11-03 23:32:00,
2013-11-03 18:37:00,27.8,21.2,30.50,West,267,0.0,0.0,76,0.00,,SKC,0.00,VWS V14.00,2013-11-03 23:37:00,
2013-11-03 18:42:00,27.7,21.2,30.50,West,267,0.0,0.0,76,0.00,,SKC,0.00,VWS V14.00,2013-11-03 23:42:00,
2013-11-03 18:47:00,27.6,21.5,30.50,West,267,0.0,0.0,78,0.00,,SKC,0.00,VWS V14.00,2013-11-03 23:47:00,
2013-11-03 18:53:00,27.4,21.5,30.50,West,267,0.0,0.0,78,0.00,,SKC,0.00,VWS V14.00,2013-11-03 23:53:00,
2013-11-03 18:58:00,27.3,21.7,30.50,West,267,0.0,0.0,79,0.00,,SKC,0.00,VWS V14.00,2013-11-03 23:58:00,
2013-11-03 19:00:00,27.2,21.6,30.51,West,267,0.0,0.0,79,0.00,,SCT,0.00,VWS V14.00,2013-11-04 00:00:00,
2013-11-03 19:03:00,27.2,21.4,30.50,West,267,0.0,0.0,78,0.00,,SKC,0.00,VWS V14.00,2013-11-04 00:03:00,
2013-11-03 19:08:00,27.0,21.2,30.51,West,267,0.0,0.0,78,0.00,,SKC,0.00,VWS V14.00,2013-11-04 00:08:00,
2013-11-03 19:13:00,26.9,21.1,30.51,West,267,0.0,0.0,78,0.00,,SKC,0.00,VWS V14.00,2013-11-04 00:13:00,
2013-11-03 19:18:00,26.8,21.0,30.51,West,267,0.0,0.0,78,0.00,,SKC,0.00,VWS V14.00,2013-11-04 00:18:00,
2013-11-03 19:23:00,26.6,20.9,30.51,West,267,0.0,0.0,79,0.00,,SKC,0.00,VWS V14.00,2013-11-04 00:23:00,
2013-11-03 19:28:00,26.5,20.9,30.52,West,267,0.0,0.0,79,0.00,,SKC,0.00,VWS V14.00,2013-11-04 00:28:00,
2013-11-03 19:30:00,26.4,20.8,30.51,West,267,0.0,0.0,79,0.00,,SCT,0.00,VWS V14.00,2013-11-04 00:30:00,
2013-11-03 19:33:00,26.3,20.8,30.52,West,267,0.0,0.0,79,0.00,,SKC,0.00,VWS V14.00,2013-11-04 00:33:00,
2013-11-03 19:38:00,26.3,20.9,30.52,West,267,0.0,0.0,80,0.00,,SKC,0.00,VWS V14.00,2013-11-04 00:38:00,
2013-11-03 19:43:00,26.1,20.7,30.52,West,267,0.0,0.0,80,0.00,,SKC,0.00,VWS V14.00,2013-11-04 00:43:00,
2013-11-03 19:48:00,26.1,20.8,30.52,West,267,0.0,0.0,80,0.00,,SKC,0.00,VWS V14.00,2013-11-04 00:48:00,
2013-11-03 19:53:00,26.1,21.0,30.52,West,267,0.0,0.0,81,0.00,,SKC,0.00,VWS V14.00,2013-11-04 00:53:00,
2013-11-03 19:58:00,26.0,21.1,30.52,West,267,0.0,0.0,82,0.00,,SKC,0.00,VWS V14.00,2013-11-04 00:58:00,
2013-11-03 20:00:00,26.0,21.2,30.53,West,267,0.0,0.0,82,0.00,,SCT,0.00,VWS V14.00,2013-11-04 01:00:00,
2013-11-03 20:03:00,25.9,21.2,30.53,West,267,0.0,0.0,82,0.00,,SKC,0.00,VWS V14.00,2013-11-04 01:03:00,
2013-11-03 20:08:00,25.8,21.3,30.53,West,267,0.0,0.0,83,0.00,,SKC,0.00,VWS V14.00,2013-11-04 01:08:00,
2013-11-03 20:13:00,25.7,21.3,30.53,West,267,0.0,0.0,83,0.00,,SKC,0.00,VWS V14.00,2013-11-04 01:13:00,
2013-11-03 20:18:00,25.6,21.2,30.53,West,267,0.0,0.0,83,0.00,,SKC,0.00,VWS V14.00,2013-11-04 01:18:00,
2013-11-03 20:23:00,25.4,21.0,30.53,West,267,0.0,0.0,83,0.00,,SKC,0.00,VWS V14.00,2013-11-04 01:23:00,
2013-11-03 20:28:00,25.3,21.0,30.53,West,267,0.0,0.0,84,0.00,,SKC,0.00,VWS V14.00,2013-11-04 01:28:00,
2013-11-03 20:30:00,25.3,21.0,30.53,West,267,0.0,0.0,84,0.00,,SCT,0.00,VWS V14.00,2013-11-04 01:30:00,
2013-11-03 20:33:00,25.2,21.0,30.54,West,267,0.0,0.0,84,0.00,,SKC,0.00,VWS V14.00,2013-11-04 01:33:00,
2013-11-03 20:38:00,25.2,21.0,30.54,West,267,0.0,0.0,84,0.00,,SKC,0.00,VWS V14.00,2013-11-04 01:38:00,
2013-11-03 20:43:00,25.2,21.0,30.54,West,267,0.0,0.0,84,0.00,,SKC,0.00,VWS V14.00,2013-11-04 01:43:00,
2013-11-03 20:48:00,25.2,21.0,30.54,West,267,0.0,0.0,84,0.00,,SKC,0.00,VWS V14.00,2013-11-04 01:48:00,
2013-11-03 20:53:00,25.0,20.9,30.54,West,267,0.0,0.0,84,0.00,,SKC,0.00,VWS V14.00,2013-11-04 01:53:00,
2013-11-03 20:58:00,25.0,20.9,30.54,West,267,0.0,0.0,84,0.00,,SKC,0.00,VWS V14.00,2013-11-04 01:58:00,
2013-11-03 21:00:00,24.9,20.9,30.54,West,267,0.0,0.0,84,0.00,,SCT,0.00,VWS V14.00,2013-11-04 02:00:00,
2013-11-03 21:03:00,24.8,20.9,30.54,West,267,0.0,0.0,85,0.00,,SKC,0.00,VWS V14.00,2013-11-04 02:03:00,
2013-11-03 21:08:00,25.1,21.4,30.54,West,267,0.0,0.0,85,0.00,,SKC,0.00,VWS V14.00,2013-11-04 02:08:00,
2013-11-03 21:13:00,25.0,21.3,30.54,West,267,0.0,0.0,86,0.00,,SKC,0.00,VWS V14.00,2013-11-04 02:13:00,
2013-11-03 21:18:00,25.0,21.4,30.55,West,267,0.0,0.0,86,0.00,,SKC,0.00,VWS V14.00,2013-11-04 02:18:00,
2013-11-03 21:23:00,24.8,21.2,30.55,West,267,0.0,0.0,86,0.00,,SKC,0.00,VWS V14.00,2013-11-04 02:23:00,
2013-11-03 21:28:00,24.5,21.0,30.55,West,267,0.0,0.0,86,0.00,,SKC,0.00,VWS V14.00,2013-11-04 02:28:00,
2013-11-03 21:30:00,24.6,21.1,30.55,West,267,0.0,0.0,86,0.00,,SCT,0.00,VWS V14.00,2013-11-04 02:30:00,
2013-11-03 21:33:00,24.4,21.0,30.55,West,267,0.0,0.0,87,0.00,,SKC,0.00,VWS V14.00,2013-11-04 02:33:00,
2013-11-03 21:38:00,24.2,20.9,30.56,West,267,0.0,0.0,87,0.00,,SKC,0.00,VWS V14.00,2013-11-04 02:38:00,
2013-11-03 21:43:00,24.2,21.0,30.56,West,267,0.0,0.0,87,0.00,,SKC,0.00,VWS V14.00,2013-11-04 02:43:00,
2013-11-03 21:48:00,24.1,20.9,30.56,West,267,0.0,0.0,87,0.00,,SKC,0.00,VWS V14.00,2013-11-04 02:48:00,
2013-11-03 21:53:00,24.0,20.9,30.56,West,267,0.0,0.0,88,0.00,,SKC,0.00,VWS V14.00,2013-11-04 02:53:00,
2013-11-03 21:58:00,23.9,20.9,30.56,West,267,0.0,0.0,88,0.00,,SKC,0.00,VWS V14.00,2013-11-04 02:58:00,
2013-11-03 22:00:00,23.9,20.9,30.56,West,267,0.0,0.0,88,0.00,,SCT,0.00,VWS V14.00,2013-11-04 03:00:00,
2013-11-03 22:03:00,23.8,20.8,30.56,West,267,0.0,0.0,88,0.00,,SKC,0.00,VWS V14.00,2013-11-04 03:03:00,
2013-11-03 22:08:00,23.9,20.8,30.56,West,267,0.0,0.0,88,0.00,,SKC,0.00,VWS V14.00,2013-11-04 03:08:00,
2013-11-03 22:13:00,23.8,20.8,30.56,West,267,0.0,0.0,88,0.00,,SKC,0.00,VWS V14.00,2013-11-04 03:13:00,
2013-11-03 22:18:00,23.5,20.6,30.56,West,267,0.0,0.0,88,0.00,,SKC,0.00,VWS V14.00,2013-11-04 03:18:00,
2013-11-03 22:23:00,23.5,20.6,30.57,West,267,0.0,0.0,88,0.00,,SKC,0.00,VWS V14.00,2013-11-04 03:23:00,
2013-11-03 22:28:00,23.4,20.5,30.57,West,267,0.0,0.0,88,0.00,,SKC,0.00,VWS V14.00,2013-11-04 03:28:00,
2013-11-03 22:30:00,23.3,20.4,30.57,West,267,0.0,0.0,88,0.00,,SCT,0.00,VWS V14.00,2013-11-04 03:30:00,
2013-11-03 22:33:00,23.2,20.4,30.57,West,267,0.0,0.0,89,0.00,,SKC,0.00,VWS V14.00,2013-11-04 03:33:00,
2013-11-03 22:38:00,23.0,20.2,30.57,West,267,0.0,0.0,89,0.00,,SKC,0.00,VWS V14.00,2013-11-04 03:38:00,
2013-11-03 22:43:00,22.8,20.0,30.57,West,267,0.0,0.0,89,0.00,,SKC,0.00,VWS V14.00,2013-11-04 03:43:00,
2013-11-03 22:48:00,23.0,20.4,30.57,West,267,0.0,0.0,89,0.00,,SKC,0.00,VWS V14.00,2013-11-04 03:48:00,
2013-11-03 22:53:00,22.9,20.4,30.58,West,267,0.0,0.0,90,0.00,,SKC,0.00,VWS V14.00,2013-11-04 03:53:00,
2013-11-03 22:58:00,22.9,20.4,30.58,West,267,0.0,0.0,90,0.00,,SKC,0.00,VWS V14.00,2013-11-04 03:58:00,
2013-11-03 23:00:00,23.0,20.5,30.58,West,267,0.0,0.0,90,0.00,,SCT,0.00,VWS V14.00,2013-11-04 04:00:00,
2013-11-03 23:03:00,22.9,20.4,30.58,West,267,0.0,0.0,90,0.00,,SKC,0.00,VWS V14.00,2013-11-04 04:03:00,
2013-11-03 23:08:00,22.8,20.3,30.58,West,267,0.0,0.0,90,0.00,,SKC,0.00,VWS V14.00,2013-11-04 04:08:00,
2013-11-03 23:13:00,22.7,20.2,30.58,West,267,0.0,0.0,90,0.00,,SKC,0.00,VWS V14.00,2013-11-04 04:13:00,
2013-11-03 23:18:00,22.4,19.9,30.58,West,267,0.0,0.0,90,0.00,,SKC,0.00,VWS V14.00,2013-11-04 04:18:00,
2013-11-03 23:23:00,22.4,19.9,30.59,West,267,0.0,0.0,90,0.00,,SKC,0.00,VWS V14.00,2013-11-04 04:23:00,
2013-11-03 23:28:00,22.2,19.8,30.59,West,267,0.0,0.0,90,0.00,,SKC,0.00,VWS V14.00,2013-11-04 04:28:00,
2013-11-03 23:30:00,22.1,19.6,30.59,West,267,0.0,0.0,90,0.00,,SCT,0.00,VWS V14.00,2013-11-04 04:30:00,
2013-11-03 23:33:00,22.2,19.8,30.59,West,267,0.0,0.0,90,0.00,,SKC,0.00,VWS V14.00,2013-11-04 04:33:00,
2013-11-03 23:38:00,22.1,19.7,30.59,West,267,0.0,0.0,90,0.00,,SKC,0.00,VWS V14.00,2013-11-04 04:38:00,
2013-11-03 23:43:00,22.0,19.6,30.60,West,267,0.0,0.0,90,0.00,,SKC,0.00,VWS V14.00,2013-11-04 04:43:00,
2013-11-03 23:48:00,21.8,19.5,30.60,West,267,0.0,0.0,90,0.00,,SKC,0.00,VWS V14.00,2013-11-04 04:48:00,
2013-11-03 23:53:00,21.9,19.6,30.60,West,267,0.0,0.0,91,0.00,,SKC,0.00,VWS V14.00,2013-11-04 04:53:00,
2013-11-03 23:58:00,21.9,19.7,30.61,West,267,0.0,0.0,91,0.00,,SKC,0.00,VWS V14.00,2013-11-04 04:58:00,